Location: El Frío
(10.0713°N, 67.9111°W)
Time: 17:35:54
(UTC+00:00)

Palapa 6 Rocket - Pass Details

Date: 11 December 2025
Orbit: 481 x 1158 km, 22.7° (Epoch: 20 January)

Event Time Altitude Azimuth Distance (km) Brightness Sun altitude
Rises 23:20:24 0° 266° (W) 2,701 7.8 -16.5°
Reaches altitude 10° 23:22:55 10° 276° (W) 1,737 6.3 -17.1°
Maximum altitude 23:26:30 33° 342° (NNW) 834 3.7 -17.9°
Enters shadow 23:27:24 29° 12° (NNE) 911 3.6 -18.1°
